cubair logo

For once you have tasted flight you will walk the earth with your eyes turned skywards,
for there you have been and there you will long to return.


"Leonardo da Vinci"

Welcome To CubAir Flight!

Cub Air Flight was founded in 2006, by Steve and Sharon Krog. Cub Air Flight school uses vintage Piper J3 Cub aircraft to instruct in, following a philosophy that “old school is still cool.” Cub Air Flight believes that these fine classic airplanes make better pilots by requiring more attention and flying skill than newer airplanes. We at Cub Air Flight hold that flying a vintage airplane is as much an art as it is a science.

The Piper J3 Cub is revered among aviators as a truly classic and iconic airplane. It has served as a trainer to more pilots than almost any airplane, earning a reputation as easy to fly but yet challenging enough to force students to continually better themselves. Cub Air uses two J3 Cubs, restored and maintained with the same attention to detail as a lovingly restored classic car. Cub Air also uses a Piper Cherokee for training requiring an aircraft with more advanced instruments.

Come fly with us and feel the freedom of
flying, the way it's supposed to be!


"Old School Is Still Cool!"

 

Our Instructors

Steve Krog

Find Us Here!

Hartford Municipal

Airport (KHXF)

4200 Highway U

Hartford, WI 53027

Our Staff

Steve Krog
Sharon Krog
Jamie Weber
Chris Hibben

Oshkosh Weather

[Source: ADDS]
METAR
KOSH 261753Z 12009KT 10SM CLR 20/13 A2982 RMK AO2 SLP091 T02000128 10206 20139 58006 =
TAF

West Bend Weather

[Source: ADDS]
METAR
KETB 261815Z AUTO 11007KT 10SM CLR 18/12 A2984 RMK AO2 =
TAF

Juneau Weather

[Source: ADDS]
METAR
KUNU 261815Z AUTO 10007KT 10SM CLR 20/14 A2984 RMK AO2 T01950137 =
TAF

Fond Du Lac Weather

[Source: ADDS]
METAR
KFLD 261753Z AUTO 11008KT 10SM CLR 21/13 A2982 RMK AO2 SLP097 60000 T02110128 10217 20139 58007 =
TAF